Simultaneous Nadir Overpasses (SNOs) Predictions

Prediction of SNOs between NOAA-19 and NPP Satellite Orbit:

Table of predicted SNOs for the next 14.0 days since TLE Epoch: 8/10/2013
Index Date (NOAA-19) Time (NOAA-19) Lat,Lon (NOAA-19) SZA (NOAA-19 ) Date (NPP) Time (NPP) Lat,Lon (NPP) SZA (NPP ) Distance(km) Time Diff (sec)
1 08/15/2013 18:51:48 80.95,-156.04 70.99 08/15/2013 18:52:50 80.95,-155.99 70.95 0.89 62
2 08/15/2013 19:42:49 -80.94, 11.41 109.03 08/15/2013 19:43:34 -80.94, 11.57 109.08 2.87 45
3 08/15/2013 20:33:51 80.93, 178.97 70.94 08/15/2013 20:34:19 80.93, 179.00 70.92 0.50 28
4 08/15/2013 21:24:52 -80.93, -13.59 109.09 08/15/2013 21:25:03 -80.92, -13.45 109.11 2.55 11
5 08/15/2013 22:15:53 80.90, 154.34 70.83 08/15/2013 22:15:47 80.90, 154.34 70.83 0.22 6
6 08/15/2013
